Voltar ao catálogo

COSMOS 1491

GLONASS

AtivoNavegaçãoMEO
NORAD 14259·PAYLOAD·🇷🇺 Russia

Lançado Aug 10, 1983 de Baikonur Cosmodrome

Loading…

Próximas Passagens (próximas 24 horas)

TLE

AtualizadoSource: Space-Track

Época: Sep 14, 2026, 11:58 UTC

1 14259U 83084B   26257.49873390 -.00000030  00000-0  00000-0 0  9993
2 14259  65.0865  54.9390 0019148 302.3013  63.5308  2.15434789338066

Acompanhe COSMOS 1491 em tempo real com AllMySat

Download on the App Store